[[{"header":{"parameterUnit":"m.s-1","parameterCategory":1,"la1":30.2991,"la2":30.254,"lo1":-89.0895,"lo2":-89.0444,"dy":0.0017,"dx":0.0017,"nx":28,"ny":28,"refTime":"2026-01-05T09:00:00:Z","depth":0,"parameterNumber":2,"parameterNumberName":"U-component_of_WINDS"},"data":[0,0,0,0,0,0,0,0,0,0,0,0,0,0,0,0,0,0,0,0,0,0,0,0,0,0,0,0,0,0,0,0,0,0,0,0,0,0,0,0,0,0,0,0,0,0,0,0,0,0,0,0,0,0,0,0,0,0,0.9661,0.9662,0,0.9727,0.9728,0.9728,0.9689,0.9687,0.9685,0.9683,0.9755,0.9759,0.9763,0,0,0,0,0,0,0,0,0,0,0,0,0,0.9506,0.9509,0.9661,0.9662,0.9663,0.9727,0.9728,0.9728,0.9689,0.9687,0.9684,0.9682,0.9754,0.9759,0.9763,0,0,0,0,0,0,0,0,0,0,0,0,0,0.9573,0.951,0.9661,0.9651,0.965,0.9726,0.9728,0.9729,0.9689,0.9687,0.9684,0.9681,0.9753,0.9758,0.9764,0.9855,0,0,0.9781,0.9783,0,0,0,0,0,0,0,0,0.9569,0.9578,0.9651,0.9651,0.9651,0.9696,0.9699,0.9771,0.969,0.9675,0.9683,0.968,0.9739,0.9745,0.9764,0.9859,0.9862,0.9781,0.9785,0.9787,0.9789,0,0,0,0,0,0,0,0.9564,0.9575,0.9687,0.9652,0.9652,0.9644,0.965,0.9713,0.9722,0.9676,0.9673,0.9681,0.9738,0.9759,0.9765,0.9863,0.9781,0.9786,0.9789,0.9792,1.0037,1.004,0,0,0,0,0,0,0.956,0.9572,0.9685,0.9689,0.9602,0.9649,0.9656,0.9685,0.9721,0.9724,0.9684,0.9679,0.975,0.9759,0.9768,0.9878,0.9787,0.9792,0.9795,1.0034,1.0038,1.0041,0,0,0,0,0,0,0.9557,0.957,0.9682,0.963,0.9643,0.9655,0.9687,0.9688,0.9708,0.9727,0.9729,0.9703,0.9749,0.976,0.9834,0.988,0.9795,0.98,1.003,1.0035,1.0039,1.0099,0,0,0,0,0,0,0.9552,0.9569,0.9603,0.9631,0.9646,0.9746,0.969,0.9691,0.9717,0.9712,0.9745,0.9748,0.9747,0.9826,0.9839,0.9886,0.9804,1.0026,1.0032,1.0038,1.0093,1.0105,1.0116,0,0,0,0,0,0.9547,0.9619,0.9605,0.9619,0.9689,0.9749,0.9758,0.9754,0.9721,0.9756,0.9768,0.9747,0.9872,0.9833,0.9848,0.9898,1.0023,1.0031,1.0038,1.0088,1.0103,1.0116,0,0,0,0,0,0,0.9598,0.9622,0.9608,0.969,0.9717,0.9742,0.9786,0.977,0.9809,0.9802,0.9797,0.9805,0.9882,0.9897,0.9853,0.9989,0.9943,0.9953,0.9976,0.999,1.0002,0.9997,0.9809,0,0,0,0,0,0.9619,0.9664,0.9683,0.9754,0.9768,0.9775,0.9801,0.9795,0.9824,0.9836,0.9854,0.9884,0.993,0.9961,1.0004,1.0094,1.0102,1.0136,1.0147,1.0156,1.0166,1.0216,1.0231,1.0065,1.0065,1.0065,0,0,0.9663,0.9681,0.971,0.9765,0.9785,0.9834,0.9785,0.9839,0.9875,0.9845,0.9915,0.9929,0.9963,1.0045,1.0083,1.006,1.0214,1.0166,1.0173,1.0178,1.0225,1.0241,1.0255,1.007,1.0069,1.0068,0,0,0.9767,0.9785,0.9846,0.9868,0.9899,0.9903,0.9917,0.9944,0.9952,1.0022,1.0,1.0044,1.0124,1.0149,1.0172,1.0285,1.0268,1.0299,1.0359,1.0408,1.0421,1.0433,1.0474,1.0489,1.0309,1.0309,1.0309,0,0.9818,0.9889,0.988,0.9935,0.996,0.9933,0.9996,1.0018,1.0062,1.0081,1.0055,1.0154,1.0174,1.0263,1.029,1.0309,1.0327,1.0296,1.0419,1.0431,1.0442,1.0482,1.0497,1.0312,1.0312,1.0312,1.0311,0,0.9951,1.0,1.0046,1.0088,1.0118,1.0177,1.0178,1.021,1.0201,1.0208,1.0281,1.0304,1.0352,1.0372,1.0365,1.046,1.0445,1.0419,1.0374,1.0462,1.0499,1.0514,1.0318,1.0316,1.0315,1.0314,0,0,1.0091,1.0126,1.0143,1.0162,1.0194,1.0233,1.0291,1.0336,1.0364,1.0396,1.0445,1.0512,1.0488,1.0515,1.051,1.0552,1.0642,1.0521,1.0522,1.0544,1.0749,1.0769,1.0787,1.0629,1.0632,1.0634,1.0746,0,1.0198,1.0298,1.0291,1.0386,1.0432,1.0406,1.0457,1.0483,1.0491,1.0532,1.0541,1.0589,1.0553,1.0569,1.061,1.0622,1.0683,1.0614,1.0677,1.068,1.0671,1.0806,1.0828,1.0933,1.0761,1.0763,1.0765,0,1.0337,1.0372,1.047,1.0495,1.0515,1.056,1.0601,1.064,1.067,1.0672,1.0701,1.0689,1.0749,1.07,1.0784,1.0737,1.0762,1.0772,1.0776,1.0783,1.0729,1.0819,1.0966,1.0983,1.0788,1.0786,1.0784,0,1.0431,1.0502,1.0571,1.0587,1.0618,1.0651,1.0665,1.0691,1.0719,1.0755,1.0773,1.0817,1.0841,1.0875,1.0876,1.084,1.0961,1.0911,1.0966,1.0966,1.0994,1.0993,1.115,1.1008,1.1008,1.1008,1.1007,0,1.0553,1.0614,1.0613,1.0655,1.0724,1.0716,1.0785,1.0796,1.082,1.0865,1.0845,1.0888,1.0885,1.0929,1.093,1.1,1.1011,1.1016,1.1016,1.1019,1.1018,1.1037,1.103,1.1012,1.1011,1.101,1.1009,0,1.067,1.0672,1.0744,1.0767,1.0774,1.0824,1.0844,1.0885,1.089,1.0947,1.096,1.097,1.102,1.1023,1.1083,1.1083,1.1168,1.1159,1.1158,1.1157,1.1212,1.1207,1.1387,1.1411,1.1253,1.1254,1.1255,0,1.0748,1.0795,1.0822,1.085,1.0866,1.0912,1.0939,1.0933,1.0963,1.1,1.1037,1.1085,1.1123,1.1206,1.1219,1.1264,1.1257,1.1317,1.1264,1.1266,1.126,1.1258,1.1263,1.1328,1.133,1.1331,1.1332,0,1.0888,1.0886,1.0926,1.0966,1.0999,1.1031,1.106,1.1085,1.1083,1.1117,1.1168,1.1198,1.1257,1.1306,1.135,1.1366,1.135,1.1348,1.1364,1.1368,1.1366,1.137,1.1188,1.1345,1.1344,1.1343,1.1342,1.1342,1.0989,1.1029,1.1055,1.11,1.1121,1.1149,1.1188,1.1198,1.124,1.1287,1.1281,1.1338,1.1366,1.1423,1.1443,1.1488,1.1468,1.149,1.1496,1.1502,1.1508,1.1357,1.1496,1.1495,1.1495,1.1495,1.1495,0,1.1129,1.1143,1.1184,1.1226,1.1262,1.124,1.1272,1.1304,1.1353,1.138,1.1418,1.1477,1.1524,1.154,1.1586,1.162,1.1613,1.1632,1.1631,1.1635,1.1523,1.1505,1.1636,1.1636,1.1636,1.1636,1.1636,1.1636,1.1205,1.1273,1.1274,1.1352,1.1367,1.1421,1.1441,1.1467,1.1489,1.1555,1.1593,1.1602,1.1626,1.1673,1.1716,1.1719,1.1738,1.1761,1.1762,1.1657,1.1643,1.1629,1.1613,1.1764,1.1765,1.187,1.1871,1.1872]},{"header":{"parameterUnit":"m.s-1","parameterCategory":1,"la1":30.2991,"la2":30.254,"lo1":-89.0895,"lo2":-89.0444,"dy":0.0017,"dx":0.0017,"nx":28,"ny":28,"refTime":"2026-01-05T09:00:00:Z","depth":0,"parameterNumber":3,"parameterNumberName":"V-component_of_WINDS"},"data":[0,0,0,0,0,0,0,0,0,0,0,0,0,0,0,0,0,0,0,0,0,0,0,0,0,0,0,0,0,0,0,0,0,0,0,0,0,0,0,0,0,0,0,0,0,0,0,0,0,0,0,0,0,0,0,0,0,0,3.6102,3.6103,0,3.616,3.616,3.6161,3.6119,3.6117,3.6116,3.6114,3.6168,3.6171,3.6174,0,0,0,0,0,0,0,0,0,0,0,0,0,3.5951,3.5954,3.6102,3.6103,3.6104,3.6159,3.616,3.6161,3.6119,3.6117,3.6115,3.6113,3.6167,3.617,3.6174,0,0,0,0,0,0,0,0,0,0,0,0,0,3.6013,3.5955,3.6102,3.609,3.6089,3.6159,3.616,3.6161,3.612,3.6117,3.6114,3.6112,3.6165,3.617,3.6175,3.6258,0,0,3.6189,3.6191,0,0,0,0,0,0,0,0,3.601,3.6019,3.6091,3.6091,3.609,3.613,3.6127,3.6194,3.6121,3.6108,3.6114,3.6111,3.6157,3.6162,3.6179,3.6261,3.6263,3.6189,3.6192,3.6194,3.6196,0,0,0,0,0,0,0,3.6005,3.6016,3.6125,3.6092,3.6092,3.6079,3.6085,3.6139,3.6147,3.6109,3.6106,3.6114,3.6156,3.6174,3.618,3.6264,3.6189,3.6194,3.6196,3.6198,3.6417,3.6419,0,0,0,0,0,0,3.6003,3.6013,3.6123,3.6126,3.6043,3.6084,3.6091,3.612,3.6146,3.6148,3.6116,3.6112,3.6168,3.6174,3.6181,3.6281,3.6194,3.6199,3.6201,3.6414,3.6417,3.6421,0,0,0,0,0,0,3.6,3.6013,3.6121,3.6069,3.6082,3.609,3.6122,3.6122,3.614,3.6152,3.6152,3.6134,3.6166,3.6175,3.624,3.6282,3.6201,3.6205,3.641,3.6415,3.6419,3.6481,0,0,0,0,0,0,3.5996,3.6012,3.6046,3.607,3.6085,3.618,3.6125,3.6125,3.6149,3.6144,3.6168,3.617,3.6164,3.6233,3.6244,3.6287,3.6209,3.6406,3.6412,3.6417,3.6476,3.6487,3.6498,0,0,0,0,0,3.5991,3.606,3.6048,3.6061,3.6127,3.6182,3.6191,3.6184,3.6153,3.6185,3.6192,3.6169,3.6276,3.624,3.6253,3.6298,3.6404,3.6411,3.6417,3.6471,3.6485,3.6497,0,0,0,0,0,0,3.6039,3.6063,3.605,3.613,3.6155,3.6175,3.6217,3.62,3.6233,3.6227,3.6216,3.6222,3.629,3.63,3.626,3.6379,3.6334,3.6344,3.6371,3.6385,3.6395,3.6392,3.6213,0,0,0,0,0,3.606,3.6105,3.6122,3.6191,3.6204,3.6208,3.6232,3.6225,3.625,3.626,3.6272,3.6295,3.6334,3.6359,3.6396,3.6476,3.648,3.6513,3.6524,3.6533,3.6542,3.6584,3.6599,3.6443,3.6442,3.6442,0,0,3.6102,3.612,3.6149,3.6201,3.622,3.6265,3.6218,3.6267,3.63,3.6267,3.633,3.6339,3.6364,3.6437,3.647,3.6448,3.6586,3.6542,3.6549,3.6553,3.6593,3.6608,3.6621,3.6447,3.6446,3.6446,0,0,3.6202,3.6221,3.628,3.6299,3.6329,3.6331,3.6345,3.6368,3.6374,3.6436,3.6412,3.645,3.6517,3.6536,3.6554,3.666,3.6639,3.6672,3.673,3.6771,3.6784,3.6795,3.6832,3.6846,3.668,3.668,3.668,0,3.625,3.6319,3.6312,3.6364,3.6387,3.636,3.6419,3.6438,3.6476,3.6492,3.6467,3.655,3.6565,3.6642,3.6668,3.6683,3.6698,3.667,3.6783,3.6794,3.6804,3.6839,3.6853,3.6684,3.6684,3.6683,3.6683,0,3.6376,3.6424,3.6468,3.6509,3.6536,3.6591,3.6591,3.6619,3.6609,3.6614,3.6677,3.6694,3.6733,3.675,3.6741,3.6826,3.6811,3.6785,3.6739,3.6822,3.6856,3.6869,3.6689,3.6688,3.6687,3.6686,0,0,3.651,3.6545,3.6561,3.6579,3.6608,3.6644,3.6697,3.6737,3.6761,3.6788,3.6832,3.6889,3.6864,3.6885,3.6877,3.6913,3.6996,3.6882,3.6882,3.6903,3.709,3.711,3.7126,3.6982,3.6984,3.6986,3.7088,0,3.6612,3.6707,3.6701,3.6789,3.6833,3.6807,3.6853,3.6875,3.688,3.6916,3.692,3.6961,3.6925,3.6938,3.6973,3.6978,3.7033,3.6971,3.7021,3.7023,3.7016,3.7144,3.7166,3.7261,3.7101,3.7103,3.7104,0,3.6743,3.6777,3.687,3.6892,3.691,3.6952,3.6987,3.7023,3.7046,3.7047,3.707,3.7056,3.7107,3.706,3.713,3.7088,3.7107,3.7113,3.7117,3.7122,3.7069,3.7152,3.7291,3.7305,3.7125,3.7123,3.7122,0,3.6832,3.6899,3.6964,3.6979,3.7007,3.7037,3.705,3.7071,3.7095,3.7124,3.714,3.7175,3.7194,3.7221,3.7215,3.7181,3.7287,3.7239,3.7288,3.7288,3.7312,3.7311,3.7456,3.7324,3.7323,3.7323,3.7323,0,3.6946,3.7004,3.7004,3.7044,3.7107,3.7099,3.7161,3.717,3.7189,3.7228,3.7207,3.7244,3.7235,3.7271,3.7266,3.7325,3.7333,3.7335,3.7333,3.7337,3.7337,3.735,3.7344,3.7327,3.7326,3.7325,3.7325,0,3.7056,3.7058,3.7127,3.7148,3.7154,3.72,3.7217,3.7253,3.7256,3.7306,3.7317,3.7321,3.7363,3.736,3.7406,3.7403,3.7475,3.7465,3.7468,3.7466,3.7515,3.7511,3.7675,3.7696,3.7549,3.7551,3.7552,0,3.713,3.7174,3.72,3.7226,3.7241,3.7282,3.7307,3.73,3.7326,3.7356,3.7388,3.7428,3.7459,3.7526,3.7532,3.7567,3.7558,3.7613,3.7563,3.7566,3.7559,3.7557,3.7561,3.7623,3.7625,3.7626,3.7627,0,3.726,3.7258,3.7296,3.7334,3.7364,3.7393,3.7419,3.7441,3.7436,3.7466,3.7509,3.7534,3.7581,3.7621,3.7654,3.7664,3.7645,3.7643,3.7656,3.7661,3.7661,3.7662,3.7495,3.7639,3.7638,3.7637,3.7636,3.7636,3.7354,3.7392,3.7416,3.7458,3.7477,3.7502,3.7537,3.7545,3.7581,3.7621,3.7613,3.7662,3.7682,3.7725,3.7739,3.7775,3.7755,3.7774,3.7779,3.7784,3.779,3.7655,3.7781,3.778,3.778,3.778,3.778,0,3.7483,3.7497,3.7536,3.7574,3.7607,3.7587,3.7614,3.7642,3.7686,3.7707,3.7739,3.7788,3.7826,3.7834,3.787,3.7897,3.7889,3.7907,3.7905,3.7908,3.7806,3.7791,3.7913,3.7913,3.7913,3.7913,3.7913,3.7913,3.7554,3.7617,3.7619,3.769,3.7703,3.7752,3.7769,3.7792,3.7809,3.7865,3.7897,3.7903,3.7919,3.7956,3.7989,3.799,3.8004,3.8026,3.8024,3.7928,3.7915,3.7902,3.7888,3.8029,3.8029,3.8123,3.8124,3.8124]}]]